Location: Fredericksburg
(30.2750°N, 98.8720°W)
Time: 20:55:18
(UTC-05:00)

PCSat - Visible Passes

Search period start: 19 September 2014 00:00
Search period end: 29 September 2014 00:00
Orbit: 786 x 796 km, 67.1° (Epoch: 18 September)

Date Brightness Start Highest point End Pass type
(mag) Time Alt. Az. Time Alt. Az. Time Alt. Az.
19 Sep 11.7 21:38:33 10° N 21:39:53 14° NNE 21:39:53 14° NNE visible
20 Sep 11.6 21:08:55 10° NNE 21:10:18 13° NE 21:10:18 13° NE visible
20 Sep 12.1 22:50:04 10° NNW 22:51:03 16° NNW 22:51:03 16° NNW visible
21 Sep 11.5 22:19:29 10° NNW 22:21:32 24° NNW 22:21:32 24° NNW visible
22 Sep 10.8 21:49:00 10° NNW 21:52:05 33° N 21:52:05 33° N visible
23 Sep 10.3 21:18:38 10° N 21:22:44 37° NE 21:22:44 37° NE visible
23 Sep 12.4 23:02:57 10° WNW 23:03:29 12° WNW 23:03:29 12° WNW visible
24 Sep 10.4 20:48:24 10° N 20:53:05 29° ENE 20:53:28 29° ENE visible
24 Sep 11.7 22:31:46 10° NW 22:34:14 22° WNW 22:34:14 22° WNW visible
25 Sep 10.9 20:18:21 10° N 20:22:23 21° NE 20:24:20 17° E visible
25 Sep 10.7 22:00:50 10° NW 22:05:06 39° W 22:05:06 39° W visible
26 Sep 11.2 19:48:34 10° NNE 19:51:37 15° NE 19:54:39 10° E visible
26 Sep 9.9 21:30:04 10° NNW 21:35:25 61° WSW 21:36:08 56° SSW visible
27 Sep 9.5 20:59:27 10° NNW 21:04:53 88° WSW 21:07:20 34° SSE visible
28 Sep 9.5 20:28:56 10° NNW 20:34:20 65° ENE 20:38:46 15° SE visible
28 Sep 12.3 22:15:14 10° W 22:17:05 12° WSW 22:18:57 10° WSW visible
